[Iaude] MPEC J259: 2024 JT11 [a=1.95,e=0.47,i=8.2,H=26.1]
    mpec at cfa.harvard.edu 
    mpec at cfa.harvard.edu
       
    Fri May 10 19:08:39 EDT 2024
    
    
  
M.P.E.C. 2024-J259                                 Issued 2024 May 10, 23:06 UT
     The Minor Planet Electronic Circulars contain information on unusual
         minor planets, routine data on comets and natural satellites,
         and occasional editorial announcements.  They are published
    on behalf of Division F of the International Astronomical Union by the
          Minor Planet Center, Smithsonian Astrophysical Observatory,
                          Cambridge, MA 02138, U.S.A.
			  
             Prepared using the Tamkin Foundation Computer Network
                              MPC at CFA.HARVARD.EDU
            URL https://www.minorplanetcenter.net/    ISSN 1523-6714
                                   2024 JT11                                    
Observations:
     K24J11T* C2024 05 09.53790515 33 41.974+18 13 38.43         19.76GVEJ259F51
     K24J11T  C2024 05 09.55065315 33 58.261+18 07 35.44         19.73GVEJ259F51
     K24J11T  C2024 05 09.56338615 34 14.610+18 01 31.87         19.73GVEJ259F51
     K24J11T  C2024 05 09.57639015 34 31.422+17 55 19.71               VEJ259F51
     K24J11T KB2024 05 10.01243915 45 00.30 +14 22 22.0          19.2 GXEJ259I93
     K24J11T KB2024 05 10.01434215 45 02.78 +14 21 25.3          18.9 GXEJ259I93
     K24J11T KB2024 05 10.01617915 45 05.16 +14 20 30.8          19.0 GXEJ259I93
     K24J11T KB2024 05 10.01801415 45 07.53 +14 19 36.0          19.4 GXEJ259I93
     K24J11T KC2024 05 10.03408315 45 28.69 +14 11 40.7          19.7 GXEJ259958
     K24J11T KC2024 05 10.03929415 45 35.38 +14 09 06.4          18.9 GXEJ259958
     K24J11T KC2024 05 10.04449515 45 42.18 +14 06 29.6          19.1 GXEJ259958
     K24J11T 1C2024 05 10.04531 15 45 40.13 +14 05 24.7          20.0 VXEJ259033
     K24J11T 1C2024 05 10.04562 15 45 40.54 +14 05 15.5          19.9 VXEJ259033
     K24J11T 1C2024 05 10.04593 15 45 40.95 +14 05 06.2          19.9 VXEJ259033
     K24J11T 1C2024 05 10.04624 15 45 41.35 +14 04 56.7          19.9 VXEJ259033
     K24J11T mC2024 05 10.20315615 49 42.773+12 47 31.02         18.67GVEJ259I52
     K24J11T mC2024 05 10.20340715 49 43.118+12 47 23.89         19.00GVEJ259I52
     K24J11T mC2024 05 10.20367115 49 43.453+12 47 15.83         18.91GVEJ259I52
     K24J11T mC2024 05 10.20392315 49 43.799+12 47 07.98         18.79GVEJ259I52
     K24J11T KB2024 05 10.30544 15 51 50.263+11 55 14.95         19.1 RZEJ259H36
     K24J11T KB2024 05 10.30859 15 51 54.302+11 53 38.90         19.2 RZEJ259H36
     K24J11T KB2024 05 10.31174 15 51 58.366+11 52 02.24         18.9 RZEJ259H36
     K24J11T KC2024 05 10.31426 15 52 10.219+11 50 26.20         19.2 GVEJ259U52
     K24J11T KC2024 05 10.32058 15 52 18.437+11 47 13.16         19.0 GVEJ259U52
     K24J11T KB2024 05 10.53862315 57 33.718+09 55 10.01         19.2 GXEJ259Q06
     K24J11T KB2024 05 10.54527215 57 42.419+09 51 43.59         18.9 GXEJ259Q06
     K24J11T KB2024 05 10.55186915 57 51.048+09 48 19.18         19.1 GXEJ259Q06
     K24J11T KB2024 05 10.82472 16 04 17.09 +07 24 10.6          19.1 GXEJ259M45
     K24J11T KB2024 05 10.83008 16 04 24.27 +07 21 21.1          18.9 GXEJ259M45
     K24J11T KC2024 05 10.85399 16 04 59.65 +07 08 51.1          19.4 GXEJ259K83
     K24J11T KC2024 05 10.86508 16 05 14.60 +07 03 00.0          19.3 GXEJ259K83
     K24J11T KB2024 05 10.88689 16 05 44.70 +06 51 27.0          19.0 GXEJ259K19
     K24J11T KB2024 05 10.89062 16 05 49.65 +06 49 30.7          19.1 GXEJ259K19
Observer details:
033 Karl Schwarzschild Observatory, Tautenburg.  Observers S. Melnikov, C.
    Hogner, F. Ludwig, M. Hartmann, B. Stecklum.  Measurer B. Stecklum.
    1.34-m f/3 Schmidt + CCD.
958 Observatoire de Dax.  Observers P. Dupouy, J. B. de Vanssay.  Measurer P.
    Dupouy.  0.43-m f/2.7 Reflector + CCD.
F51 Pan-STARRS 1, Haleakala.  Observers J. Herman, T. Lowe, P. Minguez, A.
    Schultz, I. Smith.  Measurers K. Chambers, T. de Boer, J. Fairlamb, H.
    Gao, M. Huber, C.-C. Lin, E. Magnier, Y. Ramanjooloo, R. Wainscoat, R.
    Weryk.  1.8-m Ritchey-Chretien + CCD.
H36 Sandlot Observatory, Scranton.  Observer G. Hug.  0.56-m f/4.8 reflector +
    CMO.
I52 Steward Observatory, Mt. Lemmon Station.  Observer H. Groeller.  Measurers
    T. Beuden, V. F. Carvajal, D. Fay, J. B. Fazekas, D. C. Fuls, A. R. Gibbs,
    A. D. Grauer, H. Groeller, J. K. Hogan, R. A. Kowalski, S. M. Larson, G.
    J. Leonard, D. Rankin, R. L. Seaman, F. C. Shelly, K. W. Wierzchos.  1.0-m
    prime focus + CCD.
I93 St Pardon de Conques.  Observer F. Losse.  0.40-m f/3.7 reflector + CMO.
K19 PASTIS Observatory, Banon.  Observer C. Demeautis.  0.28-m f/2.2 reflector
    + CMO.
K83 Beppe Forti Astronomical Observatory, Montelupo.  Observers M. Tombelli,
    M. Iozzi, F. Cheli, T. Bitossi, M. Lombardo, G. Interrante, L. Grazzini.
    Measurers M. Tombelli, F. Bernardi, A. Squilloni, F. Cheli.  0.40-m f/8
    Ritchey-Chretien + CCD.
M45 Starhopper Observatory, Sfantu Gheorghe.  Observer F. Ursache.  0.41-m
    f/7.5 reflector + CMO.
Q06 Tarui Observatory, Tarui.  Observer H. Watanabe.  0.35-m f/1.9 Schmidt-
    Cassegrain + CMO.
U52 Shasta Valley Observatory, Grenada.  Observers J. E. Rogers, B. Haeusler.
    Measurers J. E. Rogers, D. Parrott.  0.30-m f/5.2 Helin Telescope + CCD.
Orbital elements:
2024 JT11                                                Earth MOID = 0.0232 AU
Epoch 2024 Mar. 31.0 TT = JDT 2460400.5                 Veres                   
M 347.73513              (2000.0)            P               Q                  
n   0.36209922     Peri.  167.63464     -0.73634794     +0.66653822             
a   1.9494749      Node    54.79312     -0.63226258     -0.61667149             
e   0.4726947      Incl.    8.18091     -0.24090607     -0.41885926             
P   2.72           H   26.13          G   0.15           U   7                  
Residuals in seconds of arc
240509 F51  0.1-  0.1-    240510 033  0.3+  0.1-    240510 U52  0.4-  0.5-
240509 F51  0.0   0.2-    240510 033  0.4+  0.1+    240510 U52  0.5-  0.4-
240509 F51  0.1-  0.1-    240510 033  0.4+  0.1+    240510 Q06  0.6+  0.3+
240509 F51  0.0   0.3+    240510 033  0.3+  0.1-    240510 Q06  0.0   0.0
240510 I93  0.0   0.1+    240510 I52  0.1-  0.1-    240510 Q06  0.3-  0.2+
240510 I93  0.2+  0.0     240510 I52  0.1+  0.3+    240510 M45  0.4-  0.3-
240510 I93  0.1+  0.2+    240510 I52  0.1-  0.2+    240510 M45  0.3-  0.7-
240510 I93  0.1-  0.1+    240510 I52  0.1+  0.1-    240510 K83  0.4-  0.2+
240510 958  0.9+  0.5-    240510 H36  0.5+  0.6-    240510 K83  0.8+  0.7-
240510 958  0.1-  1.0+    240510 H36  0.1+  0.1-    240510 K19  0.4-  0.7-
240510 958  0.7+  0.2-    240510 H36  0.1+  0.1-    240510 K19  0.8-  1.0+
Ephemeris:
2024 JT11                a,e,i = 1.95, 0.47, 8                   q = 1.0280
Date    TT    R. A. (2000) Decl.     Delta      r    Elong.  Phase     V
2024 04 10    11 22 22.0 +53 41 12   0.1364  1.0646   114.0    59.3    24.1
...
2024 04 25    12 10 20.1 +52 54 40   0.07573 1.0332   109.0    67.0    23.0
...
2024 05 03    13 27 33.7 +46 20 45   0.04404 1.0280   115.8    62.0    21.6
...
2024 05 09    15 21 27.3 +22 16 17   0.02607 1.0297   140.2    38.9    19.8
2024 05 10    15 44 40.5 +14 31 54   0.02464 1.0304   146.6    32.6    19.5
2024 05 11    16 08 09.8 +05 55 46   0.02396 1.0313   152.5    26.9    19.3
...
2024 05 17    18 10 13.5 -34 44 51   0.03488 1.0392   142.6    36.2    20.4
...
2024 05 25    19 34 28.7 -49 14 55   0.06574 1.0567   130.5    46.8    22.1
...
2024 06 09    20 18 10.8 -54 05 20   0.1307  1.1084   133.0    42.0    23.6
M. P. C. Staff               (C) Copyright 2024 MPC           M.P.E.C. 2024-J259
    
    
More information about the Iaude
mailing list